Retour au catalogue

BLACKCAT

ActifScienceSSO
NORAD 67369·PAYLOAD·🇺🇸 United States

Lancé Jan 11, 2026 depuis Vandenberg Space Force Base

Loading…

Prochains Passages (prochaines 24 heures)

TLE

FraisSource: Space-Track

Époque: Sep 14, 2026, 11:16 UTC

1 67369U 26004G   26257.46967228  .00000731  00000-0  85863-4 0  9994
2 67369  97.8044 254.4443 0006348 199.4852 160.6122 14.87867263 36560

Suivez BLACKCAT en temps réel avec AllMySat

Download on the App Store